KG4K-13 Weather Reports


time (UTC)temp
C
wind
direction
speed
KPH
gust
KPH
rain 1hr
cm
rain 24hr
cm
rain mn
cm
humidity
%
barometer
mb
20260507071521 13 274 4.8 9.7 0.03 1.93 1.07 91 1010.6
20260507070515 13 287 4.8 8.0 0.03 1.93 1.07 91 1010.9
20260507065515 13 286 6.4 11.3 0.03 1.93 1.07 91 1010.6
20260507064535 13 282 4.8 11.3 0.05 1.93 1.07 91 1010.5
20260507063516 13 282 4.8 11.3 0.15 1.93 1.07 90 1010.2
20260507062516 13 279 6.4 12.9 0.36 1.93 1.04 90 1010.3
20260507061516 14 288 6.4 17.7 0.66 1.93 1.04 92 1010.5
20260507060525 14 283 4.8 6.4 0.76 1.93 1.04 94 1010.7
20260507055525 14 288 4.8 6.4 0.86 1.93 1.04 93 1010.8
20260507054525 15 285 4.8 6.4 1.02 1.88 1.02 92 1010.5
20260507053546 15 283 4.8 6.4 0.89 1.78 0.89 91 1010.5
20260507052517 16 288 3.2 9.7 0.69 1.57 0.69 89 1010.8
20260507051526 16 303 4.8 6.4 0.38 1.27 0.38 89 1011.0
20260507050526 17 314 1.6 4.8 0.28 1.14 0.28 86 1010.8
20260507045526 18 319 3.2 8.0 0.18 1.07 0.18 79 1010.8
20260507044517 18 304 6.4 9.7 0.00 0.89 0.00 78 1010.8
20260507043517 18 303 6.4 9.7 0.00 0.89 0.00 77 1010.5
20260507042527 18 309 4.8 8.0 0.00 0.89 0.00 77 1010.4
20260507041526 18 310 4.8 6.4 0.00 0.89 0.00 76 1009.9
20260507040527 18 317 3.2 4.8 0.00 0.89 0.00 76 1010.0
20260507035527 18 314 4.8 6.4 0.00 0.89 0.89 77 1010.2
20260507034518 18 302 6.4 14.5 0.00 0.89 0.89 79 1010.2
20260507033515 18 310 4.8 9.7 0.00 0.89 0.89 81 1010.1
20260507032516 18 310 6.4 9.7 0.00 0.89 0.89 87 1009.9
20260507031515 18 317 1.6 3.2 0.00 0.89 0.89 91 1009.9
20260507030536 18 263 0.0 3.2 0.00 0.89 0.89 92 1009.7
20260507025516 17 313 4.8 8.0 0.00 0.89 0.89 91 1009.9
20260507024536 17 267 0.0 3.2 0.00 0.89 0.89 91 1009.3
20260507023516 17 288 0.0 1.6 0.00 0.89 0.89 90 1009.5
20260507022517 17 283 0.0 3.2 0.00 0.89 0.89 90 1009.3
20260507021537 18 203 0.0 1.6 0.00 0.89 0.89 90 1009.4
20260507020517 18 281 0.0 1.6 0.00 0.89 0.89 89 1009.4
20260507015557 18 280 0.0 1.6 0.00 0.89 0.89 89 1009.2
20260507014518 18 280 0.0 1.6 0.00 0.89 0.89 89 1009.7
20260507013517 18 15 0.0 1.6 0.00 0.89 0.89 88 1009.9
20260507012517 18 277 0.0 1.6 0.00 0.89 0.89 89 1010.0
20260507011518 18 228 0.0 1.6 0.00 0.89 0.89 88 1010.1
20260507010518 18 233 0.0 1.6 0.00 0.89 0.89 87 1009.8
20260507005518 18 271 0.0 1.6 0.00 0.89 0.89 86 1009.7
20260507004518 19 291 0.0 1.6 0.00 0.89 0.89 84 1009.5
20260507003515 19 281 0.0 1.6 0.00 0.89 0.89 84 1009.5
20260507002516 20 306 0.0 1.6 0.00 0.89 0.89 83 1009.4
20260507001515 20 247 0.0 0.0 0.00 0.89 0.89 82 1009.6
20260507000536 20 0.0 0.0 0.00 0.89 0.89 81 1009.5
20260506235516 20 315 0.0 0.0 0.00 0.89 0.89 80 1009.4
20260506234516 20 204 0.0 3.2 0.00 0.89 0.89 79 1009.2
20260506233516 21 228 0.0 1.6 0.00 0.89 0.89 78 1009.2
20260506232516 21 235 1.6 4.8 0.00 0.89 0.89 78 1008.8
20260506231537 21 206 0.0 3.2 0.00 0.89 0.89 78 1008.9
20260506230517 21 182 0.0 4.8 0.00 0.89 0.89 78 1009.1
20260506225517 21 227 0.0 3.2 0.00 0.89 0.89 77 1008.8
20260506224517 21 212 0.0 3.2 0.00 0.89 0.89 77 1008.9
20260506223517 21 89 0.0 3.2 0.00 0.89 0.89 76 1008.9
20260506222517 21 158 0.0 4.8 0.00 0.89 0.89 76 1008.9
20260506221538 21 213 0.0 4.8 0.00 0.89 0.89 76 1009.0
20260506220538 21 67 0.0 3.2 0.00 0.89 0.89 76 1008.9
20260506215515 21 199 1.6 4.8 0.00 0.89 0.89 76 1009.0
20260506214515 22 77 1.6 3.2 0.00 0.89 0.89 74 1008.9
20260506213516 21 257 1.6 4.8 0.00 0.89 0.89 74 1008.7
20260506212516 21 181 1.6 6.4 0.00 0.89 0.89 75 1008.8
20260506211516 21 71 1.6 6.4 0.00 0.89 0.89 76 1008.6
20260506210516 21 186 1.6 8.0 0.00 0.89 0.89 75 1008.5
20260506205516 21 360 1.6 6.4 0.00 0.89 0.89 75 1008.4
20260506204516 21 68 3.2 8.0 0.00 0.89 0.89 75 1008.5
20260506203517 21 68 1.6 8.0 0.00 0.89 0.89 75 1008.4
20260506202517 21 177 1.6 11.3 0.00 0.89 0.89 75 1008.4
20260506201517 21 354 1.6 6.4 0.00 0.89 0.89 74 1008.5
20260506200537 22 147 1.6 9.7 0.00 0.89 0.89 74 1008.4
20260506195517 22 193 1.6 9.7 0.00 0.89 0.89 74 1008.4
20260506194517 22 167 3.2 11.3 0.00 0.89 0.89 73 1008.6
20260506193518 22 178 3.2 6.4 0.00 0.89 0.89 73 1008.6
20260506192518 21 191 1.6 9.7 0.00 0.89 0.89 76 1008.6
20260506191518 21 198 1.6 4.8 0.00 0.89 0.89 76 1008.8
20260506190518 21 70 1.6 4.8 0.00 0.89 0.89 76 1008.8
20260506185515 21 184 1.6 8.0 0.00 0.89 0.89 77 1008.9
20260506184516 21 187 3.2 8.0 0.00 0.89 0.89 76 1009.1
20260506183535 21 205 3.2 8.0 0.00 0.89 0.89 77 1009.2
20260506182516 21 196 3.2 12.9 0.00 0.89 0.89 77 1009.4
20260506181516 20 83 1.6 9.7 0.00 0.89 0.89 78 1009.4
20260506180516 20 206 3.2 9.7 0.00 0.89 0.89 79 1009.7
20260506175517 19 284 1.6 6.4 0.00 0.89 0.89 80 1009.7
20260506174516 19 241 3.2 8.0 0.00 0.89 0.89 82 1009.7
20260506173516 18 223 3.2 8.0 0.00 0.89 0.89 82 1009.7
20260506172517 18 264 3.2 9.7 0.00 0.89 0.89 84 1009.9
20260506171523 18 288 3.2 6.4 0.00 0.89 0.89 85 1009.8
20260506170522 18 234 3.2 4.8 0.00 0.89 0.89 87 1009.9
20260506165543 17 221 1.6 6.4 0.00 0.89 0.89 88 1010.2
20260506164523 17 235 1.6 6.4 0.03 0.89 0.89 89 1010.1
20260506163523 17 296 1.6 4.8 0.08 0.89 0.89 89 1009.8
20260506162524 17 354 1.6 4.8 0.10 0.89 0.89 91 1009.9
20260506161524 16 248 3.2 4.8 0.13 0.89 0.89 92 1010.3
20260506160524 16 222 1.6 4.8 0.15 0.89 0.89 93 1010.4
20260506155523 16 222 3.2 6.4 0.25 0.89 0.89 92 1010.3
20260506154524 16 230 1.6 8.0 0.38 0.86 0.86 92 1010.2
20260506153524 16 215 1.6 4.8 0.53 0.81 0.81 92 1010.5
20260506152524 16 243 1.6 6.4 0.56 0.79 0.79 92 1011.1
20260506151545 16 231 1.6 4.8 0.56 0.76 0.76 92 1011.1
20260506150525 16 242 1.6 4.8 0.66 0.74 0.74 91 1011.1
20260506145545 16 239 0.0 3.2 0.58 0.64 0.64 91 1011.2
20260506144525 16 240 1.6 3.2 0.48 0.48 0.48 89 1011.1
20260506143525 17 241 1.6 3.2 0.28 0.28 0.28 88 1011.1
20260506142540 17 206 1.6 8.0 0.25 0.25 0.25 87 1011.2
20260506141525 17 212 1.6 6.4 0.20 0.20 0.20 85 1011.3
20260506140526 17 231 1.6 4.8 0.10 0.10 0.10 82 1011.3
20260506135526 18 223 3.2 6.4 0.05 0.05 0.05 79 1011.4
20260506134526 17 198 1.6 4.8 0.00 0.00 0.00 80 1011.5
20260506133547 17 227 1.6 3.2 0.00 0.00 0.00 81 1011.3
20260506132527 17 216 3.2 8.0 0.00 0.00 0.00 82 1011.2
20260506131527 17 183 3.2 8.0 0.00 0.00 0.00 81 1011.1
20260506130521 17 214 3.2 9.7 0.00 0.00 0.00 80 1011.0
20260506125527 17 221 1.6 4.8 0.00 0.00 0.00 80 1011.0
20260506124527 17 214 3.2 6.4 0.00 0.00 0.00 80 1011.1
20260506123515 17 201 3.2 8.0 0.00 0.00 0.00 80 1011.3
20260506122527 17 223 3.2 8.0 0.00 0.00 0.00 79 1011.3
20260506121536 18 260 3.2 8.0 0.00 0.00 0.00 79 1011.3
20260506120548 17 251 1.6 4.8 0.00 0.00 0.00 79 1011.3
20260506115527 17 227 3.2 8.0 0.00 0.00 0.00 80 1011.2
20260506114516 17 175 3.2 8.0 0.00 0.00 0.00 81 1011.1
20260506113528 17 311 1.6 4.8 0.00 0.00 0.00 81 1011.0
20260506112516 17 194 3.2 9.7 0.00 0.00 0.00 81 1010.9
20260506111516 17 267 1.6 11.3 0.00 0.00 0.00 81 1010.7
20260506110528 17 273 1.6 4.8 0.00 0.00 0.00 82 1010.7
20260506105528 17 260 1.6 4.8 0.00 0.00 0.00 81 1010.7
20260506104529 17 213 1.6 6.4 0.00 0.00 0.00 82 1010.6
20260506103537 17 204 3.2 9.7 0.00 0.00 0.00 82 1010.6
20260506102529 17 237 1.6 6.4 0.00 0.00 0.00 82 1010.6
20260506101529 17 208 1.6 4.8 0.00 0.00 0.00 82 1010.5
20260506100529 17 188 1.6 4.8 0.00 0.00 0.00 82 1010.6
20260506095529 17 223 1.6 4.8 0.00 0.00 0.00 81 1010.7
20260506094529 17 195 1.6 4.8 0.00 0.00 0.00 81 1010.7
20260506093529 17 268 1.6 4.8 0.00 0.00 0.00 80 1010.7
20260506092530 17 238 3.2 6.4 0.00 0.00 0.00 80 1010.7
20260506091550 17 157 3.2 6.4 0.00 0.00 0.00 81 1010.7
20260506090550 17 297 1.6 4.8 0.00 0.00 0.00 82 1010.8
20260506085530 17 196 1.6 6.4 0.00 0.00 0.00 84 1010.7
20260506084530 17 219 1.6 6.4 0.00 0.00 0.00 82 1010.7
20260506083515 17 269 3.2 6.4 0.00 0.00 0.00 82 1010.8
20260506082516 17 187 1.6 6.4 0.00 0.00 0.00 81 1010.8
20260506081518 18 194 3.2 12.9 0.00 0.00 0.00 80 1010.7
20260506080516 18 221 1.6 6.4 0.00 0.00 0.00 79 1010.6
20260506073516 18 259 1.6 1.6 0.00 0.00 0.00 77 1010.9
20260506072516 18 207 1.6 3.2 0.00 0.00 0.00 77 1011.0